Theta_e
336 339 342 343 345 347 348 350 351 349 353 358 359 360 361 362 362 357 358 359 358 365 366 359 361 363 363 360 359 359 358 354 354
337 339 341 344 345 347 349 349 351 350 354 357 358 358 360 361 360 359 359 361 360 358 362 361 361 363 360 361 361 360 360 355 356
337 341 342 343 344 345 346 348 350 351 355 353 358 356 358 356 357 357 356 356 358 360 361 359 355 351 355 357 359 360 361 356 357
337 338 341 344 346 345 345 347 349 349 353 354 352 352 348 346 343 348 350 349 355 358 359 358 346 344 342 345 354 358 358 357 355
338 340 341 342 344 346 346 347 349 351 353 351 351 354 352 348 347 348 344 345 348 351 352 352 355 346 339 337 342 356 354 352 347
339 340 342 343 344 345 347 345 345 345 345 344 343 346 344 343 341 341 340 343 345 347 350 345 347 344 335 334 336 351 353 349 345
338 340 342 343 343 345 346 346 346 345 346 345 346 345 344 342 341 340 341 345 348 351 349 344 343 344 346 346 350 348 345 344 343
336 337 337 338 339 341 343 344 344 346 348 348 345 346 347 348 348 346 348 347 345 346 344 343 343 345 346 345 343 340 346 346 344
334 337 336 338 340 342 342 342 345 346 345 346 347 346 342 345 346 345 344 344 345 341 341 343 344 346 343 344 342 330 330 332 339
334 337 337 338 339 341 342 344 344 343 341 343 341 340 341 342 342 341 339 340 340 338 338 337 338 339 340 341 341 327 326 325 331
336 337 338 340 340 340 342 342 341 342 342 343 341 338 337 336 336 334 333 333 332 331 330 330 329 330 330 331 332 324 322 321 325
340 340 341 341 341 341 341 340 340 339 337 336 334 330 329 328 328 326 326 324 324 324 322 322 322 322 323 323 324 319 318 320 321
339 340 339 338 337 337 336 336 337 335 333 330 328 325 323 324 324 322 321 321 320 321 321 320 319 320 321 320 321 318 316 317 317
339 337 336 335 335 334 333 332 332 330 328 324 323 322 321 321 320 319 320 320 320 319 319 319 319 319 320 320 320 320 314 314 315
332 330 330 331 329 327 326 326 327 324 322 321 321 320 319 319 318 316 316 318 318 318 317 316 316 316 314 315 319 315 313 311 310
329 329 328 328 326 324 323 323 324 321 320 320 318 318 318 318 316 316 317 316 316 312 315 311 311 309 309 310 313 314 311 310 311
327 326 324 325 323 321 320 321 320 320 320 319 318 318 317 317 316 315 316 314 313 311 310 309 309 308 307 308 310 311 311 311 310
326 324 323 322 320 319 318 318 317 316 318 318 315 315 314 315 314 315 315 316 313 311 313 309 307 308 307 307 306 308 304 302 303
324 322 321 320 319 318 317 316 316 318 318 317 315 314 313 312 312 312 313 313 312 308 304 302 300 299 302 308 303 301 299 297 297
317 320 319 318 317 316 316 315 316 318 318 317 315 314 314 313 311 312 312 312 310 309 310 302 300 298 298 298 299 298 296 295 296
Wind_Speed
3 7 9 11 9 8 8 7 8 7 9 9 9 9 10 10 10 7 8 8 7 5 4 2 4 5 5 7 6 6 4 6 7
8 7 7 7 5 6 6 6 7 6 9 10 11 12 11 10 10 10 8 8 8 7 5 4 5 2 4 4 5 5 3 4 5
9 9 9 9 8 8 6 6 7 6 8 7 7 7 7 5 8 5 3 4 7 8 7 6 5 4 6 3 3 4 5 4 6
9 9 8 8 7 7 6 4 3 5 4 5 4 2 5 3 1 3 5 3 6 8 6 6 6 7 5 5 7 7 5 5 4
10 8 8 7 7 6 4 6 7 8 7 6 3 3 3 3 3 6 4 5 9 7 4 5 3 1 5 9 10 11 8 7 6
10 9 8 7 7 7 6 6 6 8 8 6 4 3 5 5 3 4 2 6 7 8 9 4 2 6 4 1 16 14 8 8 7
10 9 8 7 6 6 6 5 6 5 5 5 5 5 5 4 6 4 7 2 3 5 4 7 3 1 10 9 14 10 9 7 7
11 11 9 7 7 6 5 6 4 4 2 1 3 1 5 6 5 4 1 3 4 7 5 4 3 4 3 5 7 6 7 8 8
13 13 11 10 8 6 6 6 7 3 3 3 3 1 3 4 5 4 4 5 7 8 6 6 6 2 1 5 7 9 8 7 9
14 14 12 11 9 8 9 9 8 7 6 5 5 5 4 5 5 5 5 7 8 9 8 5 5 4 4 5 8 7 6 8 11
13 12 12 10 9 9 8 8 8 8 7 6 6 5 5 5 5 6 6 7 7 7 6 6 5 5 6 7 8 2 5 10 13
12 12 9 7 7 8 7 7 7 7 7 6 5 5 5 5 5 4 6 7 8 8 8 7 6 6 8 8 9 6 8 10 12
12 12 10 9 9 9 8 7 6 6 5 5 5 6 5 5 6 6 7 7 7 6 6 7 8 9 9 10 11 8 4 7 10
12 11 11 10 9 8 7 6 6 5 5 5 5 4 5 6 7 6 8 7 7 8 9 9 9 10 10 11 9 10 2 5 10
12 12 12 10 9 8 7 5 4 5 5 5 5 5 5 5 5 5 5 6 7 8 7 8 9 10 11 9 11 7 7 4 8
12 12 9 8 8 8 6 5 3 4 5 4 4 3 3 3 3 4 5 7 7 8 7 8 9 10 11 11 11 11 8 9 8
12 10 8 7 6 6 5 5 5 5 4 4 3 2 3 3 5 4 6 7 6 7 8 8 9 11 11 12 12 12 11 11 14
11 9 7 6 5 5 5 5 5 4 3 1 3 4 5 6 6 6 7 7 7 8 9 6 10 11 11 13 13 13 14 14 13
10 8 7 6 6 6 5 5 4 2 1 3 5 6 5 5 7 8 8 8 9 7 13 12 13 15 13 12 13 16 18 17 15
9 8 7 6 6 5 5 4 2 1 2 4 6 7 7 7 7 8 8 9 10 11 9 14 17 17 18 17 17 17 18 17 18
Wind_Direction
153 195 185 212 196 199 194 189 191 200 192 222 215 213 223 221 232 232 233 238 265 256 247 236 164 187 202 203 219 229 238 236 242
113 132 136 99 149 167 145 165 195 195 206 214 210 205 204 215 218 220 256 254 246 228 230 191 194 184 179 233 194 208 209 242 242
104 108 126 129 121 125 129 148 153 197 211 229 218 210 225 218 209 230 205 240 235 202 186 165 153 93 39 61 267 214 221 186 170
115 120 120 124 128 131 139 137 134 126 108 87 87 103 69 110 7 166 159 262 267 228 193 193 161 167 23 24 326 273 245 272 286
118 120 124 125 121 114 112 81 66 52 61 75 68 143 157 155 260 300 313 278 293 327 50 50 330 226 8 18 324 271 250 252 294
127 131 133 122 124 130 119 94 79 75 69 65 60 94 102 90 32 13 328 302 212 219 219 250 101 167 132 53 267 256 247 261 265
133 133 135 125 130 126 131 134 124 114 83 69 67 88 82 39 47 53 56 39 251 149 134 159 173 160 142 203 231 248 250 241 251
138 142 143 135 145 144 172 190 187 162 135 298 166 42 32 18 9 77 66 47 34 36 51 65 117 173 118 215 233 246 244 239 252
149 149 136 133 132 124 136 199 180 174 348 217 175 173 21 57 55 48 52 47 60 73 51 36 32 10 240 245 256 71 39 343 294
152 153 146 148 138 121 111 113 123 121 124 134 132 136 138 88 66 53 34 32 34 33 46 48 28 355 323 300 294 63 2 320 286
146 152 153 149 136 128 126 119 107 115 112 110 111 110 95 56 48 37 23 25 25 20 9 5 348 330 314 301 289 359 305 298 282
139 139 136 132 121 112 114 119 125 125 123 129 128 98 76 61 53 41 28 21 10 3 351 342 331 321 308 302 297 315 303 307 305
135 141 135 131 120 125 124 124 134 142 140 134 91 68 49 45 43 38 32 20 9 354 341 334 326 327 315 307 301 300 273 301 296
139 125 124 122 128 122 124 140 134 126 124 96 87 71 55 40 28 27 21 12 6 354 348 337 335 329 327 309 312 314 319 298 307
134 127 128 125 126 119 111 111 126 120 94 84 78 76 69 55 39 9 19 355 349 338 332 315 325 327 319 329 328 314 331 347 303
135 131 130 130 129 124 104 82 64 106 101 100 97 93 71 29 353 348 339 332 325 306 319 326 328 330 326 324 328 321 335 308 294
139 138 140 130 134 123 109 92 85 99 127 145 183 204 247 266 278 317 287 305 307 311 316 320 325 326 321 323 321 316 319 329 328
140 137 134 135 139 134 125 124 117 109 118 188 279 297 302 296 288 291 306 288 315 307 300 317 305 306 315 312 317 316 322 295 295
136 134 134 140 133 133 135 144 135 129 345 312 304 294 276 308 311 300 307 307 305 252 239 253 233 247 259 296 298 285 282 283 282
116 131 133 134 134 129 144 148 169 188 294 278 280 286 295 296 288 304 305 302 302 304 300 225 236 242 243 238 265 276 277 277 278